[[{"header":{"parameterUnit":"m.s-1","parameterCategory":1,"la1":30.2991,"la2":30.254,"lo1":-89.0895,"lo2":-89.0444,"dy":0.0017,"dx":0.0017,"nx":28,"ny":28,"refTime":"2023-09-27T09:00:00:Z","depth":0,"parameterNumber":2,"parameterNumberName":"U-component_of_WINDS"},"data":[0,0,0,0,0,0,0,0,0,0,0,0,0,0,0,0,0,0,0,0,0,0,0,0,0,0,0,0,0,0,0,0,0,0,0,0,0,0,0,0,0,0,0,0,0,0,0,0,0,0,0,0,0,0,0,0,0,0,-4.9387,-4.9389,0,-4.9504,-4.9505,-4.9506,-4.9407,-4.9403,-4.9399,-4.9395,-4.9515,-4.9522,-4.9529,0,0,0,0,0,0,0,0,0,0,0,0,0,-4.9081,-4.9087,-4.9387,-4.9389,-4.939,-4.9503,-4.9505,-4.9506,-4.9407,-4.9402,-4.9397,-4.9393,-4.9512,-4.9521,-4.9529,0,0,0,0,0,0,0,0,0,0,0,0,0,-4.9207,-4.9089,-4.9387,-4.9354,-4.9353,-4.9503,-4.9505,-4.9507,-4.9409,-4.9402,-4.9396,-4.939,-4.951,-4.952,-4.953,-4.9719,0,0,-4.9563,-4.9567,0,0,0,0,0,0,0,0,-4.92,-4.9219,-4.9358,-4.9357,-4.9355,-4.9434,-4.9441,-4.9578,-4.941,-4.9387,-4.9395,-4.9387,-4.9493,-4.9505,-4.954,-4.9725,-4.973,-4.9564,-4.957,-4.9575,-4.9578,0,0,0,0,0,0,0,-4.9192,-4.9213,-4.9433,-4.936,-4.9358,-4.9334,-4.9346,-4.9466,-4.9474,-4.9389,-4.9382,-4.9397,-4.9491,-4.953,-4.9542,-4.9732,-4.9563,-4.9573,-4.9579,-4.9583,-5.0079,-5.0086,0,0,0,0,0,0,-4.9186,-4.9207,-4.9429,-4.9437,-4.9261,-4.9345,-4.9357,-4.9415,-4.9472,-4.9475,-4.9402,-4.9392,-4.9515,-4.953,-4.9546,-4.9772,-4.9574,-4.9584,-4.959,-5.0073,-5.0081,-5.0088,0,0,0,0,0,0,-4.918,-4.9207,-4.9425,-4.932,-4.9346,-4.9357,-4.9423,-4.9421,-4.9459,-4.9482,-4.9483,-4.9441,-4.9511,-4.9531,-4.9677,-4.9775,-4.9589,-4.9599,-5.0064,-5.0075,-5.0085,-5.0226,0,0,0,0,0,0,-4.9172,-4.9205,-4.9277,-4.9322,-4.9352,-4.9554,-4.9428,-4.9427,-4.9478,-4.9466,-4.9518,-4.9521,-4.9507,-4.9662,-4.9688,-4.9786,-4.9607,-5.0056,-5.0069,-5.0081,-5.0213,-5.024,-5.0263,0,0,0,0,0,-4.9161,-4.9312,-4.9281,-4.9309,-4.9441,-4.956,-4.9577,-4.9558,-4.9486,-4.9559,-4.9573,-4.9519,-4.976,-4.9678,-4.9706,-4.9809,-5.005,-5.0065,-5.008,-5.0201,-5.0235,-5.0263,0,0,0,0,0,0,-4.9278,-4.9317,-4.9283,-4.9453,-4.9504,-4.9543,-4.9634,-4.9593,-4.9666,-4.9652,-4.9625,-4.9638,-4.9792,-4.9815,-4.9723,-4.9996,-4.9893,-4.9915,-4.9976,-5.0007,-5.0032,-5.0024,-4.9616,0,0,0,0,0,-4.9324,-4.9416,-4.9446,-4.9593,-4.962,-4.9623,-4.9674,-4.9655,-4.9706,-4.9728,-4.9753,-4.9805,-4.9893,-4.9951,-5.0032,-5.0215,-5.0226,-5.03,-5.0325,-5.0346,-5.0365,-5.0465,-5.0499,-5.0139,-5.0139,-5.0138,0,0,-4.9419,-4.9452,-4.9512,-4.9617,-4.9654,-4.9752,-4.9642,-4.9749,-4.9821,-4.9744,-4.9884,-4.9904,-4.9961,-5.0127,-5.0201,-5.0151,-5.0467,-5.0365,-5.0381,-5.039,-5.0485,-5.0519,-5.0549,-5.0149,-5.0147,-5.0146,0,0,-4.9642,-4.9676,-4.9803,-4.9843,-4.99,-4.9901,-4.9932,-4.9977,-4.9988,-5.0128,-5.0072,-5.0158,-5.0309,-5.0352,-5.0394,-5.0635,-5.0589,-5.0662,-5.0795,-5.0893,-5.0921,-5.0946,-5.1034,-5.1066,-5.0681,-5.0682,-5.0682,0,-4.9754,-4.9898,-4.9874,-4.9986,-5.0035,-4.9969,-5.0098,-5.0137,-5.0219,-5.0254,-5.0196,-5.0385,-5.0419,-5.0594,-5.0654,-5.0689,-5.0724,-5.0657,-5.0919,-5.0944,-5.0967,-5.105,-5.1083,-5.0691,-5.069,-5.0689,-5.0688,0,-5.0033,-5.0134,-5.023,-5.031,-5.0369,-5.049,-5.0484,-5.0547,-5.0523,-5.0531,-5.0675,-5.0713,-5.0802,-5.0842,-5.0819,-5.1015,-5.0982,-5.0922,-5.0819,-5.101,-5.1088,-5.112,-5.0703,-5.07,-5.0697,-5.0695,0,0,-5.0334,-5.04,-5.0436,-5.0473,-5.0531,-5.0609,-5.0727,-5.0814,-5.0869,-5.0927,-5.1026,-5.1156,-5.1101,-5.1149,-5.113,-5.1216,-5.1407,-5.1145,-5.1146,-5.1194,-5.1628,-5.1674,-5.1712,-5.1376,-5.1382,-5.1387,-5.1624,0,-5.0562,-5.0766,-5.0748,-5.0942,-5.1036,-5.0975,-5.1077,-5.1125,-5.1136,-5.1217,-5.1228,-5.1321,-5.124,-5.1269,-5.1351,-5.1367,-5.1494,-5.1349,-5.147,-5.1474,-5.1459,-5.1752,-5.1801,-5.2023,-5.1654,-5.1659,-5.1663,0,-5.0854,-5.0924,-5.1127,-5.1173,-5.1212,-5.1305,-5.1383,-5.1462,-5.1515,-5.1516,-5.157,-5.1538,-5.1657,-5.155,-5.1715,-5.1617,-5.1665,-5.168,-5.1689,-5.1701,-5.1581,-5.1774,-5.2093,-5.2127,-5.171,-5.1706,-5.1703,0,-5.1056,-5.12,-5.1341,-5.1374,-5.1431,-5.1497,-5.1524,-5.1571,-5.1625,-5.1694,-5.1729,-5.1811,-5.1857,-5.1921,-5.1912,-5.1835,-5.2081,-5.1973,-5.2087,-5.2088,-5.2143,-5.214,-5.2477,-5.2171,-5.2171,-5.217,-5.217,0,-5.1313,-5.1441,-5.1433,-5.152,-5.1661,-5.1639,-5.178,-5.1799,-5.1841,-5.1932,-5.1883,-5.1969,-5.1951,-5.2037,-5.203,-5.2169,-5.2189,-5.2195,-5.2192,-5.2201,-5.2201,-5.2233,-5.2219,-5.2179,-5.2177,-5.2175,-5.2174,0,-5.1564,-5.1563,-5.1713,-5.1754,-5.1768,-5.187,-5.1906,-5.1989,-5.1995,-5.211,-5.2135,-5.2145,-5.2244,-5.2241,-5.2353,-5.2348,-5.252,-5.2498,-5.2502,-5.2499,-5.2614,-5.2604,-5.2985,-5.3034,-5.2695,-5.2698,-5.2701,0,-5.1729,-5.1825,-5.1877,-5.1934,-5.1966,-5.2058,-5.2112,-5.2095,-5.2154,-5.2223,-5.2298,-5.2391,-5.2466,-5.2627,-5.2644,-5.273,-5.2711,-5.2839,-5.2724,-5.273,-5.2716,-5.2711,-5.2722,-5.2862,-5.2866,-5.2869,-5.2871,0,-5.2022,-5.2018,-5.2098,-5.218,-5.2247,-5.231,-5.2368,-5.2418,-5.2406,-5.2475,-5.2576,-5.2633,-5.2748,-5.2843,-5.2925,-5.2953,-5.2912,-5.2907,-5.2939,-5.2949,-5.2949,-5.2953,-5.2566,-5.2899,-5.2896,-5.2894,-5.2893,-5.2892,-5.2236,-5.232,-5.237,-5.2463,-5.2504,-5.256,-5.264,-5.2656,-5.2739,-5.2831,-5.2815,-5.2929,-5.298,-5.3087,-5.3123,-5.3211,-5.3166,-5.3211,-5.3223,-5.3235,-5.3249,-5.2933,-5.3226,-5.3225,-5.3224,-5.3224,-5.3223,0,-5.2529,-5.2559,-5.2644,-5.2727,-5.28,-5.2753,-5.2815,-5.2879,-5.2979,-5.3031,-5.3105,-5.3221,-5.3313,-5.3338,-5.3427,-5.3493,-5.3477,-5.3518,-5.3514,-5.3521,-5.3283,-5.3248,-5.353,-5.353,-5.353,-5.353,-5.3529,-5.3529,-5.2691,-5.2831,-5.2832,-5.2993,-5.3021,-5.3131,-5.3171,-5.3222,-5.3264,-5.3396,-5.3472,-5.3487,-5.3529,-5.362,-5.3703,-5.3708,-5.3744,-5.3793,-5.3791,-5.3568,-5.3538,-5.3508,-5.3476,-5.3801,-5.3801,-5.4022,-5.4024,-5.4026]},{"header":{"parameterUnit":"m.s-1","parameterCategory":1,"la1":30.2991,"la2":30.254,"lo1":-89.0895,"lo2":-89.0444,"dy":0.0017,"dx":0.0017,"nx":28,"ny":28,"refTime":"2023-09-27T09:00:00:Z","depth":0,"parameterNumber":3,"parameterNumberName":"V-component_of_WINDS"},"data":[0,0,0,0,0,0,0,0,0,0,0,0,0,0,0,0,0,0,0,0,0,0,0,0,0,0,0,0,0,0,0,0,0,0,0,0,0,0,0,0,0,0,0,0,0,0,0,0,0,0,0,0,0,0,0,0,0,0,-3.8487,-3.8486,0,-3.8413,-3.8412,-3.8411,-3.8305,-3.8304,-3.8302,-3.83,-3.8226,-3.8225,-3.8225,0,0,0,0,0,0,0,0,0,0,0,0,0,-3.8538,-3.8538,-3.8487,-3.8486,-3.8485,-3.8413,-3.8412,-3.8411,-3.8306,-3.8303,-3.8301,-3.8299,-3.8226,-3.8225,-3.8225,0,0,0,0,0,0,0,0,0,0,0,0,0,-3.8495,-3.8538,-3.8487,-3.8424,-3.8418,-3.8413,-3.8412,-3.841,-3.8306,-3.8303,-3.8301,-3.8298,-3.8226,-3.8225,-3.8225,-3.8277,0,0,-3.8224,-3.8223,0,0,0,0,0,0,0,0,-3.8498,-3.8494,-3.8434,-3.8428,-3.8421,-3.8365,-3.8402,-3.8366,-3.8307,-3.8349,-3.83,-3.8297,-3.8274,-3.827,-3.8262,-3.8273,-3.827,-3.8224,-3.8223,-3.8223,-3.8223,0,0,0,0,0,0,0,-3.8501,-3.8496,-3.8458,-3.8434,-3.8426,-3.8399,-3.839,-3.8395,-3.8328,-3.8345,-3.8337,-3.8329,-3.827,-3.8263,-3.8259,-3.8269,-3.8224,-3.8223,-3.8223,-3.8223,-3.8316,-3.8318,0,0,0,0,0,0,-3.8513,-3.8499,-3.846,-3.8455,-3.8454,-3.8401,-3.839,-3.8386,-3.8327,-3.8316,-3.8332,-3.8325,-3.8265,-3.826,-3.8256,-3.8311,-3.8223,-3.8223,-3.8223,-3.8313,-3.8316,-3.8319,0,0,0,0,0,0,-3.8515,-3.8511,-3.8463,-3.8475,-3.8467,-3.8403,-3.8399,-3.8386,-3.8378,-3.8318,-3.8305,-3.8336,-3.8262,-3.8257,-3.8272,-3.8307,-3.8223,-3.8222,-3.831,-3.8314,-3.8318,-3.8422,0,0,0,0,0,0,-3.8517,-3.8512,-3.8531,-3.8476,-3.8467,-3.848,-3.8401,-3.8387,-3.8377,-3.8368,-3.8318,-3.8308,-3.826,-3.8273,-3.8271,-3.8305,-3.8222,-3.8306,-3.8312,-3.8317,-3.8415,-3.8429,-3.8441,0,0,0,0,0,-3.8519,-3.8565,-3.8533,-3.8529,-3.8489,-3.8482,-3.8477,-3.842,-3.8381,-3.8399,-3.836,-3.8309,-3.8304,-3.8275,-3.8273,-3.8307,-3.8304,-3.831,-3.8316,-3.8409,-3.8426,-3.8441,0,0,0,0,0,0,-3.8626,-3.8556,-3.852,-3.8549,-3.8522,-3.8464,-3.8486,-3.8441,-3.8425,-3.8416,-3.8347,-3.8337,-3.836,-3.8335,-3.8304,-3.8352,-3.8296,-3.8302,-3.8368,-3.8383,-3.8396,-3.8401,-3.8222,0,0,0,0,0,-3.8653,-3.8653,-3.8592,-3.8623,-3.8612,-3.8552,-3.8546,-3.8505,-3.8474,-3.8463,-3.8424,-3.8397,-3.8388,-3.8385,-3.8374,-3.8411,-3.8398,-3.8433,-3.8446,-3.8457,-3.8463,-3.8478,-3.8492,-3.834,-3.834,-3.8339,0,0,-3.8709,-3.8671,-3.8675,-3.8644,-3.8618,-3.8619,-3.8543,-3.8547,-3.8547,-3.8463,-3.8474,-3.8445,-3.841,-3.8435,-3.8445,-3.8415,-3.8502,-3.8465,-3.8474,-3.8474,-3.8486,-3.85,-3.8513,-3.8344,-3.8343,-3.8342,0,0,-3.8811,-3.8783,-3.8805,-3.878,-3.8741,-3.87,-3.8706,-3.8654,-3.8631,-3.8641,-3.8577,-3.8576,-3.8564,-3.854,-3.8527,-3.8618,-3.857,-3.8616,-3.8684,-3.87,-3.8712,-3.8722,-3.8752,-3.8764,-3.8622,-3.8623,-3.8623,0,-3.8886,-3.8884,-3.8822,-3.883,-3.8817,-3.874,-3.8761,-3.8741,-3.8701,-3.8694,-3.8661,-3.8642,-3.8613,-3.8631,-3.8653,-3.8645,-3.8648,-3.8621,-3.8715,-3.8725,-3.8733,-3.8761,-3.8773,-3.8628,-3.8628,-3.8627,-3.8626,0,-3.8976,-3.8976,-3.8999,-3.8961,-3.8951,-3.8966,-3.8905,-3.8903,-3.8862,-3.8824,-3.8834,-3.8796,-3.8775,-3.8776,-3.8737,-3.8788,-3.877,-3.8728,-3.867,-3.8755,-3.878,-3.879,-3.8637,-3.8634,-3.8633,-3.8631,0,0,-3.9144,-3.907,-3.908,-3.906,-3.9011,-3.901,-3.902,-3.8999,-3.8997,-3.8972,-3.8978,-3.8968,-3.8927,-3.8912,-3.8869,-3.8884,-3.8955,-3.8838,-3.8836,-3.886,-3.9006,-3.9038,-3.9051,-3.8923,-3.8925,-3.8926,-3.9008,0,-3.9236,-3.9249,-3.9192,-3.922,-3.9218,-3.9144,-3.9153,-3.9124,-3.9089,-3.9082,-3.9043,-3.9036,-3.8984,-3.8974,-3.8985,-3.8944,-3.8983,-3.8938,-3.8927,-3.8928,-3.8937,-3.9065,-3.9099,-3.9178,-3.9018,-3.902,-3.9021,0,-3.9344,-3.9323,-3.935,-3.9297,-3.9294,-3.9304,-3.9278,-3.9272,-3.9237,-3.921,-3.9192,-3.9142,-3.9148,-3.9093,-3.9099,-3.9069,-3.9062,-3.9041,-3.9043,-3.9039,-3.8979,-3.9063,-3.9202,-3.9213,-3.9036,-3.9035,-3.9034,0,-3.9461,-3.944,-3.9453,-3.9439,-3.9378,-3.9386,-3.9361,-3.9323,-3.9313,-3.929,-3.9283,-3.9262,-3.9251,-3.9235,-3.918,-3.9146,-3.9192,-3.9133,-3.9169,-3.9171,-3.9182,-3.9182,-3.932,-3.918,-3.9179,-3.9179,-3.9179,0,-3.9568,-3.9588,-3.9505,-3.9513,-3.9531,-3.9466,-3.9487,-3.9454,-3.9421,-3.942,-3.9356,-3.9357,-3.9285,-3.9278,-3.9235,-3.9245,-3.9241,-3.9219,-3.9207,-3.9224,-3.9227,-3.9217,-3.921,-3.9182,-3.9181,-3.9181,-3.918,0,-3.9703,-3.9648,-3.9657,-3.9598,-3.9583,-3.96,-3.9549,-3.9553,-3.9514,-3.9514,-3.951,-3.9448,-3.9436,-3.938,-3.9356,-3.9326,-3.9351,-3.9328,-3.9363,-3.9355,-3.9393,-3.9389,-3.9529,-3.9543,-3.9396,-3.9397,-3.9398,0,-3.9774,-3.9787,-3.9729,-3.9723,-3.9701,-3.9694,-3.9682,-3.9618,-3.9609,-3.9568,-3.9577,-3.956,-3.9542,-3.9526,-3.9479,-3.9459,-3.9435,-3.9485,-3.9431,-3.9447,-3.9433,-3.9433,-3.9432,-3.9496,-3.9498,-3.95,-3.9501,0,-3.9906,-3.9877,-3.9863,-3.984,-3.9828,-3.9806,-3.9781,-3.978,-3.9709,-3.9702,-3.9688,-3.9674,-3.9648,-3.963,-3.9602,-3.9576,-3.9526,-3.9518,-3.9525,-3.9542,-3.9561,-3.9549,-3.9392,-3.9515,-3.9514,-3.9513,-3.9512,-3.9512,-4.0009,-4.0016,-3.9976,-3.9962,-3.9935,-3.9913,-3.9913,-3.9873,-3.986,-3.9833,-3.9796,-3.9787,-3.9748,-3.9705,-3.9682,-3.9673,-3.9646,-3.9656,-3.9659,-3.9662,-3.967,-3.9563,-3.9668,-3.9668,-3.9667,-3.9667,-3.9667,0,-4.0136,-4.0106,-4.0094,-4.0059,-4.0048,-4.0002,-3.997,-3.9964,-3.9956,-3.9925,-3.9908,-3.9891,-3.9874,-3.9824,-3.9802,-3.9804,-3.9781,-3.98,-3.9799,-3.9793,-3.9697,-3.9692,-3.9819,-3.9819,-3.9819,-3.9819,-3.9819,-3.9819,-4.02,-4.0209,-4.0176,-4.017,-4.014,-4.013,-4.0115,-4.0093,-4.0067,-4.0051,-4.0036,-4.0004,-3.9964,-3.9938,-3.9919,-3.9905,-3.9899,-3.9925,-3.9904,-3.9815,-3.98,-3.9786,-3.9781,-3.9925,-3.9925,-4.0,-4.0001,-4.0001]}]]